OpenBCM V1.13 (Linux)

Packet Radio Mailbox

DB0FHN

[JN59NK Nuernberg]

 Login: GUEST





  
OZ1LQH > KEP      21.11.12 07:23l 77 Lines 3140 Bytes #999 (0) @ WW
BID : ARLK092
Read: DK3UZ GUEST DG4YDF
Subj: ARLK092 Keplerian data
Path: DB0FHN<DB0FOR<DB0SIF<DB0EAM<DB0GV<DB0LJ<DB0OVN<DB0GOS<ON0AR<OZ5BBS
Sent: 121121/0509Z @:OZ5BBS.FYN.DNK.EU #:21849 [Odense] $:ARLK092
From: OZ1LQH@OZ5BBS.FYN.DNK.EU
To  : KEP@WW

ZCZC SK92
QST de W1AW
Keplerian Bulletin 92  ARLK092
From ARRL Headquarters
Newington, CT  November 20, 2012
To all radio amateurs

SB KEP ARL ARLK092
ARLK092 Keplerian data

Special thanks to AMSAT-NA (AMSAT.ORG) for the following Keplerian
data.

Decode 2-line elsets with the following key:
1 AAAAAU 00  0  0 BBBBB.BBBBBBBB  .CCCCCCCC  00000-0  00000-0 0  DDDZ
2 AAAAA EEE.EEEE FFF.FFFF GGGGGGG HHH.HHHH III.IIII JJ.JJJJJJJJKKKKKZ
KEY: A-CATALOGNUM B-EPOCHTIME C-DECAY D-ELSETNUM E-INCLINATION F-RAAN
G-ECCENTRICITY H-ARGPERIGEE I-MNANOM J-MNMOTION K-ORBITNUM Z-CHECKSUM

AO-07
1 07530U 74089B   12325.00534405 -.00000027  00000-0  10000-3 0  5357
2 07530 101.4138 316.2626 0011856 338.3569 021.7000 12.53592924739572
AO-16
1 20439U 90005D   12325.03406356  .00000231  00000-0  10177-3 0  6095
2 20439 098.4460 264.1665 0011860 058.6835 301.5508 14.32111592192308
AO-27
1 22825U 93061C   12325.54527413  .00000194  00000-0  93068-4 0  2472
2 22825 098.5922 266.0515 0008330 175.1425 184.9845 14.29510718998812
FO-29
1 24278U 96046B   12324.77544880 -.00000030  00000-0  71026-5 0  9819
2 24278 098.5847 045.0740 0350696 346.7234 012.4854 13.52991404802994
ISS
1 25544U 98067A   12325.80801016  .00021180  00000-0  35583-3 0  6803
2 25544 051.6495 063.4856 0015452 308.7816 142.1038 15.51595755802348
NO-44
1 26931U 01043C   12324.81822942  .00000453  00000-0  20804-3 0  1897
2 26931 067.0525 079.2103 0005064 253.7244 106.3303 14.29860776581495
SO-50
1 27607U 02058C   12324.69585164  .00000855  00000-0  15013-3 0  9185
2 27607 064.5562 181.7705 0071534 216.7414 142.8743 14.72638834532865
CO-55
1 27844U 03031E   12324.52640631  .00000359  00000-0  18540-3 0  5119
2 27844 098.7028 330.6564 0010309 131.1030 229.1045 14.21115002486952
RS-22
1 27939U 03042A   12325.36256045  .00001057  00000-0  20880-3 0  9212
2 27939 097.7987 158.1066 0013903 125.7939 234.4556 14.64228101488736
VO-52
1 28650U 05017B   12324.49491859  .00001914  00000-0  23834-3 0  2660
2 28650 097.5824 347.7710 0024919 250.4083 109.4470 14.83377037407991
CO-58
1 28895U 05043F   12324.64585344  .00001188  00000-0  25158-3 0  3317
2 28895 097.8903 183.9057 0018417 024.6073 335.5985 14.60853208376355
CO-65
1 32785U 08021C   12324.88513231  .00002310  00000-0  28751-3 0  4727
2 32785 097.7805 022.1184 0013144 272.9250 087.0419 14.83394816246841
COMPASS 1
1 32787U 08021E   12324.65859646  .00003522  00000-0  42176-3 0  4685
2 32787 097.7822 022.4501 0013931 272.6555 087.3086 14.84669551246875
DO-64
1 32789U 08021G   12324.73111625  .00006609  00000-0  74220-3 0  4789
2 32789 097.7941 025.6670 0013217 266.8933 093.0813 14.87019139246981
RS-30
1 32953U 08025A   12325.19508640  .00000010  00000-0  00000+0 0  3403
2 32953 082.5029 198.1284 0018996 331.4556 028.5492 12.43029687203943
KKS-1
1 33499U 09002H   12324.84089989  .00001736  00000-0  28442-3 0  9008
2 33499 098.1260 079.4860 0009069 299.4621 060.5672 14.72011696205322

Keplerian bulletins are transmitted twice weekly from W1AW.  The
next scheduled transmission of these data will be Tuesday, November
27, 2012, at 2330z on Baudot and BPSK31.
NNNN



Read previous mail | Read next mail


 28.07.2026 08:29:35lGo back Go up